Regional Weather Roundup
Issued by NWS New Orleans/Baton Rouge, LA

Home | Current Version | Previous Version | Text Only | Print | Product List | Glossary On
Versions: 1 2 3 4 5 6 7 8 9 10 11 12 13 14 15 16 17 18 19 20 21 22 23 24 25 26 27 28 29 30 31 32 33 34 35 36 37 38 39 40 41 42 43 44 45 46 47 48 49 50
981
ASUS44 KLIX 020401
RWRLIX
NEW ORLEANS REGIONAL WEATHER ROUNDUP
NATIONAL WEATHER SERVICE NEW ORLEANS LA
1100 PM CDT WED OCT 01 2014

NOTE: "FAIR" INDICATES FEW OR NO CLOUDS BELOW 12,000 FEET WITH NO
      SIGNIFICANT WEATHER AND/OR OBSTRUCTIONS TO VISIBILITY.
      SKY/WX - SKY CONDITION AND SIGNIFICANT WEATHER.
      TMP - AIR TEMPERATURE.     DP    - DEWPOINT TEMPERATURE.
      RH  - RELATIVE HUMIDITY.   PRES  - PRESSURE.
      HI  - HEAT INDEX.          WCI   - WIND CHILL INDEX.

*  THESE STATIONS ARE NOT NWS OR FAA STATIONS AND ARE NOT UNDER
   NWS QUALITY CONTROL.

LAZ038-040-048-061>063-065>067-069-020500-
SOUTHEAST LOUISIANA

CITY           SKY/WX    TMP DP  RH WIND       PRES   REMARKS
N.O. AUDUBON     N/A     78  78  98 MISG        N/A
N.O. INTL ARPT PTCLDY    79  75  87 SE8       29.94S
N.O. LAKEFRONT CLEAR     78  75  90 SE9       29.95S
N.O. DOWNTOWN* MOCLDY    79  72  78 CALM      29.95S
SLIDELL        PTCLDY    78  74  87 SE6       29.95R
BATON ROUGE    MOCLDY    77  75  93 SE7       29.93S
BOOTHVILLE     PTCLDY    78  76  93 E3        29.96S
BELLE CHASSE   PTCLDY    79  75  87 SE6       29.95S
BOGALUSA*        N/A     77  72  83 CALM      29.97R
GALLIANO*      NOT AVBL
NEW ROADS*       N/A     76  75  95 SE5       29.92S
GONZALES*        N/A     77  77 100 CALM      29.93S
HAMMOND*       NOT AVBL
HOUMA*         PTCLDY   N/A N/A N/A SE3       29.94S
PORT FOURCHON* CLEAR     81  75  83 SE6       29.98S

$$

MSZ070-080>082-020500-
SOUTHERN MISSISSIPPI

CITY           SKY/WX    TMP DP  RH WIND       PRES   REMARKS
MCCOMB         MOCLDY    75  72  90 SE9       29.95S
GULFPORT       CLEAR     79  74  84 SE10      29.95S
BILOXI         PTCLDY    79  75  87 SE6       29.96S
PASCAGOULA     CLEAR     70  70 100 CALM      29.97S

$$

COASTAL OBSERVATIONS
LAKE AND NEARSHORE STATIONS

STATION/POSITION TIME  TEMP    WIND        PRES    WAVE
                       AIR SEA DIR/SP/G            HT/PER
                 (UTC) (F)     (DEG/KT/KT) (MB)    (FT/S)
PASCAGOULA       0300   80     130/  9/ 11 1014.4
WAVELAND YACHT   0300                      1013.6
GRAND ISLE       0300   80     150/  5/  7   N/A
SOUTHWEST PASS   0300   80     140/  2/  2   N/A
NEW CANAL        0300                      1014.4
SHELL BEACH      0300                      1014.2

OFFSHORE STATIONS

STATION/POSITION TIME  TEMP    WIND        PRES    WAVE
                       AIR SEA DIR/SP/G            HT/PER
                 (UTC) (F)     (DEG/KT/KT) (MB)    (FT/S)
64 S DAUPHIN ISL 0331   81 82  120/ 12/ 14 1015.2    1/ 3

$$




USA.gov is the U.S. government's official web portal to all federal, state and local government web resources and services.